User: anonymous   Login
Location: Unspecified
(0.0000°N, 0.0000°E)
Time: 11:39:31
(UTC+00:00)
Language:

ATV-4 - Orbit

View from above orbital plane
View from above orbital plane
View from above satellite
View from above satellite

Ground track
Ground track

The orbit data is extracted from the following two-line orbital elements,

1 39175U 13027A   13306.01642957 -.00126952  00000-0 -50637-3 0  1729
2 39175 051.6433 144.8835 0007495 290.6396 069.3804 15.86001973 23175
Epoch (UTC): 02 November 2013 00:23:39
Eccentricity: 0.0007495
inclination: 51.6433°
perigee height: 308 km
apogee height: 318 km
right ascension of ascending node: 144.8835°
argument of perigee: 290.6396°
revolutions per day: 15.86001973
mean anomaly at epoch: 69.3804°
orbit number at epoch: 2317

The dashed part of the orbit path shows where the satellite is in the earth's shadow,  

DLR